View from above orbital plane
|
View from above satellite
|
Ground track
|
The orbit data is extracted from the following two-line orbital elements,
1 31598U 07023A 21103.83214677 .00000193 00000-0 30810-4 0 9992
2 31598 97.8892 288.6405 0001546 89.8979 270.2406 14.82156777749324
Epoch (UTC): | 13 April 2021 19:58:17 |
Eccentricity: | 0.0001546 |
inclination: | 97.8892° |
perigee height: | 621 km |
apogee height: | 623 km |
right ascension of ascending node: | 288.6405° |
argument of perigee: | 89.8979° |
revolutions per day: | 14.82156777 |
mean anomaly at epoch: | 270.2406° |
orbit number at epoch: | 74932 |
The dashed part of the orbit path shows where the satellite is in the earth's shadow,
|
|